Regional Weather Roundup
Issued by NWS

Home | Current Version | Previous Version | Graphics & Text | Print | Product List | Glossary On
Versions: 1 2 3 4 5 6 7 8 9 10 11 12 13 14 15 16 17 18 19 20 21 22 23 24 25 26 27 28 29 30 31 32 33 34 35 36 37 38 39 40 41 42 43 44 45 46 47 48 49 50
000
ASUS43 KFSD 111210
RWRSD

WEATHER ROUNDUP FOR SOUTH DAKOTA
NATIONAL WEATHER SERVICE SIOUX FALLS SD
700 AM CDT FRI JUL 11 2014

NOTE: "FAIR" INDICATES FEW OR NO CLOUDS BELOW 12,000 FEET WITH NO
SIGNIFICANT WEATHER AND/OR OBSTRUCTIONS TO VISIBILITY.


SDZ001>005-009-010-012>017-111300-
NORTHWEST AND NORTH CENTRAL SOUTH DAKOTA

CITY           SKY/WX    TMP DP  RH WIND       PRES   REMARKS
BUFFALO          N/A     63  60  90 N9        29.91R
FAITH            N/A     67  67 100 SW5       29.91R
MOBRIDGE       FOG       63  63 100 CALM      29.85R VSB 1/4
$$

SDZ012>016-024>037-041>051-057-063-072>074-111300-
SOUTHWEST AND SOUTH CENTRAL SOUTH DAKOTA

CITY           SKY/WX    TMP DP  RH WIND       PRES   REMARKS
RAPID CTY ARPT PTCLDY    66  59  78 N6        29.96R
PIERRE         CLEAR     69  67  93 SW6       29.86S
CUSTER         PTCLDY    60  53  77 NW5       30.11R
ELLSWORTH AFB  CLOUDY    67  60  77 NW2       29.96R
PHILIP         PTCLDY    65  61  87 SW3       29.90R
PINE RIDGE     MOCLDY    64  62  93 CALM      29.96S
WINNER         FAIR      70  64  81 SW3       29.88R
$$

SDZ004>011-016>023-039-040-111300-
NORTHEAST SOUTH DAKOTA

CITY           SKY/WX    TMP DP  RH WIND       PRES   REMARKS
ABERDEEN       CLEAR     67  66  97 CALM      29.84R
WATERTOWN      MOCLDY    70  66  87 S8        29.88R
SISSETON         N/A     73  68  84 W14       29.82R
$$

SDZ017-020-022-023-036>040-048>070-111300-
SOUTHEAST SOUTH DAKOTA

CITY           SKY/WX    TMP DP  RH WIND       PRES   REMARKS
SIOUX FALLS    CLOUDY    71  66  84 S22G30    29.91S
HURON          CLEAR     72  66  81 S7        29.83S
CHAMBERLAIN    CLEAR     70  65  86 SW3       29.87R
MITCHELL       CLOUDY    71  68  90 S9        29.86R
YANKTON        CLOUDY    70  66  88 SE13      29.92F
$$

ABBREVIATIONS USED IN REMARKS
   TC - TEMPERATURE IN CELSIUS
  WCI - WIND CHILL INDEX
   HX - HEAT INDEX
  VSB - VISIBILITY



USA.gov is the U.S. government's official web portal to all federal, state and local government web resources and services.